Regional Weather Roundup
Issued by NWS Kansas City/Pleasant Hill, MO

Home | Current Version | Previous Version | Text Only | Print | Product List | Glossary On
Versions: 1 2 3 4 5 6 7 8 9 10 11 12 13 14 15 16 17 18 19 20 21 22 23 24 25 26 27 28 29 30 31 32 33 34 35 36 37 38 39 40 41 42 43 44 45 46 47 48 49 50
000
ASUS43 KEAX 032010
RWREAX

WEATHER ROUNDUP FOR EASTERN KANSAS AND NORTHWEST MISSOURI
NATIONAL WEATHER SERVICE KANSAS CITY/PLEASANT HILL MO
300 PM CDT FRI JUL 03 2015

KSZ040-057-103>105-MOZ028-029-037-043-032100-
...KANSAS CITY METROPOLITAN AREA...

CITY           SKY/WX    TMP DP  RH WIND       PRES   REMARKS
K.C. INTL      SUNNY     77  57  50 NE8       29.97F
K.C. DOWNTOWN  SUNNY     81  60  48 N10       29.94F
LEES SUMMIT    SUNNY     79  60  52 N9        29.96F
OLATHE - IXD   MOSUNNY   80  63  55 N10       29.96F
OLATHE - OJC   MOSUNNY   79  59  50 N13       29.95F
LAWRENCE       SUNNY     80  58  46 N9        29.96F

$$

MOZ001>008-011>017-020>025-030>033-038>040-044>046-053-054-032100-
...NORTHERN AND CENTRAL MISSOURI...

CITY           SKY/WX    TMP DP  RH WIND       PRES   REMARKS
ST. JOSEPH     SUNNY     78  57  48 VRB5      29.96F
MOSBY          CLEAR     77  52  41 NE7       29.96F
WARRENSBURG    PTSUNNY   77  63  61 N8        29.95S
WHITEMAN AFB   PTSUNNY   78  63  59 N10       29.94S
CLINTON        MOSUNNY   79  70  73 NE12      29.94S
SEDALIA        SUNNY     80  62  54 NE9       29.96S
WARSAW         NOT AVBL
CHILLICOTHE      N/A     79  60  52 VRB6      29.97F
KIRKSVILLE     SUNNY     78  58  49 NE6       29.98F

$$

MOZ041-047>049-056>058-063>065-088>090-097-032100-
...EASTERN AND SOUTHERN MISSOURI...

CITY           SKY/WX    TMP DP  RH WIND       PRES   REMARKS
ST. LOUIS INTL PTSUNNY   81  66  60 N10       29.91F
SPIRIT OF STL  PTSUNNY   81  66  60 N6        29.90F
COLUMBIA       MOSUNNY   79  61  53 N9        29.94F
JEFFERSON CITY SUNNY     81  56  42 NW3       29.91F
MEXICO         MOSUNNY   81  64  57 NE10      29.95S
ROLLA          MOSUNNY   79  61  53 N9        29.92F
LEBANON        SUNNY     77  68  73 MISG      29.94S
OSAGE BEACH    PTSUNNY   77  64  65 N8        29.93F
SPRINGFIELD    MOSUNNY   80  69  69 NE12      29.91F
BRANSON        PTSUNNY   81  70  69 N5        29.91F
JOPLIN         CLOUDY    73  70  90 E7        29.90F
WEST PLAINS    PTSUNNY   75  70  84 SE6       29.93S
MALDEN         MOSUNNY   84  73  70 SW12      29.88F HX  91

$$

IAZ060-094-KSZ022-034>040-054-083-096-NEZ052-066-093-032100-
...KANSAS...SOUTHEAST NEBRASKA AND IOWA...

CITY           SKY/WX    TMP DP  RH WIND       PRES   REMARKS
TOPEKA         MOSUNNY   80  64  58 NE8       29.96F
MANHATTAN      PTSUNNY   81  65  58 N8        29.97F
EMPORIA        CLOUDY    76  66  71 N13       29.96F
CHANUTE        PTSUNNY   81  69  67 N12       29.92S
WICHITA        PTSUNNY   85  64  49 N13       29.94F
OMAHA          PTSUNNY   76  55  48 CALM      29.99F
LINCOLN        CLOUDY    78  61  55 VRB3      30.01F
FALLS CITY     SUNNY     79  58  48 NE6       29.98F
LAMONI         SUNNY     78  59  51 NE8       29.99F
DES MOINES     SUNNY     78  50  37 CALM      29.97F

$$



USA.gov is the U.S. government's official web portal to all federal, state and local government web resources and services.